User: anonymous   Login
Location: Raven Hill Discovery Center
(45.1336°N, 85.0553°W)
Time: 13:27:09
(UTC-04:00)
Language:

Cosmos 1470 - Orbit

View from above orbital plane
View from above orbital plane
View from above satellite
View from above satellite

Ground track
Ground track

The orbit data is extracted from the following two-line orbital elements,

1 14147U 83061A   14302.95518601  .00005162  00000-0  33806-3 0  1236
2 14147 082.5043 260.7366 0014088 356.3010 003.8111 15.07460704459792
Epoch (UTC): 29 October 2014 22:55:28
Eccentricity: 0.0014088
inclination: 82.5043°
perigee height: 534 km
apogee height: 554 km
right ascension of ascending node: 260.7366°
argument of perigee: 356.3010°
revolutions per day: 15.07460704
mean anomaly at epoch: 3.8111°
orbit number at epoch: 45979

The dashed part of the orbit path shows where the satellite is in the earth's shadow,  

DLR